Location: Hoyos del Collado
(40.3594°N, 5.2003°W)
Time: 11:23:28
(UTC+00:00)

Okean 1 Rocket - Pass Details

Date: 18 April 2024
Orbit: 603 x 631 km, 82.5° (Epoch: 22 May)

Event Time Altitude Azimuth Distance (km) Brightness Sun altitude
Exits shadow 20:43:58 35° 149° (SSE) 1,010 3.7 -18.3°
Maximum altitude 20:45:28 53° 94° (E) 778 3.2 -18.5°
Drops below altitude 10° 20:49:50 10° 18° (NNE) 2,020 5.9 -19.2°
Sets 20:52:07 0° 13° (NNE) 2,933 6.8 -19.5°
